Overview Statistics Trail Chart Weather Telemetry Raw packets
 

This is the latest recevied weather packets stored in our database for station/object OK4PZ-5. If no packets are shown the sender has not sent any weather packets the latest 10 day(s).

<< 21 22 23 24 25 26 27 >>
Time Temp. Humidity Pressure Rain* Wind** Luminosity Snow
1788104703 26.67° C 45% 1018 hPa 0 mm - - -
1788103803 26.11° C 45% 1018 hPa 0 mm - - -
1788102903 26.67° C 43% 1018 hPa 0 mm - - -
1788102003 27.22° C 43% 1017 hPa 0 mm - - -
1788101102 27.22° C 45% 1018 hPa 0 mm - - -
1788100203 27.22° C 46% 1018 hPa 0 mm - - -
1788099302 26.11° C 48% 1018 hPa 0 mm - - -
1788098402 26.67° C 47% 1018 hPa 0 mm - - -
1788097503 27.78° C 46% 1018 hPa 0 mm - - -
1788096602 26.67° C 49% 1018 hPa 0 mm - - -
1788095703 25.56° C 50% 1018 hPa 0 mm - - -
1788094802 27.22° C 49% 1018 hPa 0 mm - - -
1788093902 26.67° C 51% 1018 hPa 0 mm - - -
1788093002 26.67° C 51% 1018 hPa 0 mm - - -
1788092102 25.56° C 53% 1018 hPa 0 mm - - -
1788091202 26.11° C 52% 1018 hPa 0 mm - - -
1788090302 26.11° C 51% 1019 hPa 0 mm - - -
1788089402 26.11° C 51% 1018 hPa 0 mm - - -
1788088501 25.56° C 53% 1019 hPa 0 mm - - -
1788087602 25.56° C 52% 1019 hPa 0 mm - - -
1788086702 24.44° C 54% 1019 hPa 0 mm - - -
1788085802 25° C 53% 1019 hPa 0 mm - - -
1788084902 24.44° C 54% 1019 hPa 0 mm - - -
1788084002 23.89° C 54% 1019 hPa 0 mm - - -
1788083102 24.44° C 52% 1019 hPa 0 mm - - -

* Rain latest hour (hover to see other rain measurements)
** Current wind speed in m/s (hover to see current wind gust speed)